Location: Bowden
(51.9167°N, 114.0333°W)
Time: 11:16:49
(UTC+00:00)

Envisat - Pass Details

Date: 05 December 2021
Orbit: 764 x 766 km, 98.2° (Epoch: 28 January)

Event Time Altitude Azimuth Distance (km) Brightness Sun altitude
Rises 13:13:03 0° 12° (NNE) 3,248 6.3 -19.6°
Reaches altitude 10° 13:15:23 10° 9° (N) 2,317 5.5 -19.2°
Maximum altitude 13:20:26 63° 290° (WNW) 855 2.9 -18.4°
Drops below altitude 10° 13:25:26 10° 210° (SSW) 2,300 5.3 -17.7°
Sets 13:27:45 0° 207° (SSW) 3,222 6.1 -17.4°
